Regional Weather Roundup
Issued by NWS

Home | Current Version | Previous Version | Text Only | Print | Product List | Glossary Off
Versions: 1 2 3 4 5 6 7 8 9 10 11 12 13 14 15 16 17 18 19 20 21 22 23 24 25 26 27 28 29 30 31 32 33 34 35 36 37 38 39 40 41 42 43 44 45 46 47 48 49 50

000
ASUS43 KDTX 241801
RWRMI
MICHIGAN HOURLY REGIONAL WEATHER ROUNDUP
NATIONAL WEATHER SERVICE DETROIT/PONTIAC MI
100 PM EST FRI FEB 24 2017

NOTE: "FAIR" INDICATES FEW OR NO CLOUDS BELOW 12,000 FEET WITH NO
SIGNIFICANT WEATHER AND/OR OBSTRUCTION TO VISIBILITY.

MIZ047>049-052>055-059>063-066>070-074>076-081>083-241900-
SOUTHEAST LOWER MICHIGAN

CITY           SKY/WX    TMP DP  RH WIND       PRES   REMARKS
ADRIAN         CLOUDY    66  57  72 SW15      29.54S
6HR MIN TEMP:  41; 6HR MAX TEMP:  66;

ALMA           CLOUDY    38  37  97 NE12      29.57S WCI  31
ANN ARBOR      MOSUNNY   66  58  75 S10       29.52F
BAD AXE        CLOUDY    39  38  99 E3        29.61S FOG
6HR MIN TEMP:  34; 6HR MAX TEMP:  39;

CARO           CLOUDY    41  41  97 CALM      29.57F
DETROIT CITY   PTSUNNY   60  53  77 SW5       29.56F
6HR MIN TEMP:  41; 6HR MAX TEMP:  60;

DETROIT        PTSUNNY   68  57  68 S15       29.54F
6HR MIN TEMP:  41; 6HR MAX TEMP:  68;

FLINT          CLOUDY    46  44  93 VRB6      29.55F FOG
6HR MIN TEMP:  36; 6HR MAX TEMP:  46; 6HR PCP:  0.07;

GROSSE ILE     CLOUDY    55  49  80 S3        29.55F
6HR MIN TEMP:  41; 6HR MAX TEMP:  56;

HILLSDALE      CLOUDY    63  55  77 S9G18     29.52R
HOWELL         CLOUDY    56  52  85 CALM      29.53F
6HR MIN TEMP:  38; 6HR MAX TEMP:  56; 6HR PCP:  0.01;


CITY           SKY/WX    TMP DP  RH WIND       PRES   REMARKS
JACKSON        CLOUDY    64  56  75 SW10      29.52F
6HR MIN TEMP:  41; 6HR MAX TEMP:  64;

LAMBERTVILLE   CLOUDY    71  56  59 SW15G21   29.52F
6HR MIN TEMP:  40; 6HR MAX TEMP:  71;

LANSING        FOG       43  41  93 NE7       29.54F VSB 1
6HR MIN TEMP:  37; 6HR MAX TEMP:  43; 6HR PCP:  0.07;

LAPEER         CLOUDY    47  47  99 CALM      29.58F FOG
6HR MIN TEMP:  36; 6HR MAX TEMP:  47; 6HR PCP:  0.01;

MASON          CLOUDY    50  50  99 NE5       29.52F FOG
MONROE         CLOUDY    69  58  67 S18G28    29.52F
6HR MIN TEMP:  39; 6HR MAX TEMP:  69;

PONTIAC        CLOUDY    56  52  86 S3        29.54F
6HR MIN TEMP:  38; 6HR MAX TEMP:  56; 6HR PCP: TRACE;

PORT HOPE        N/A     37  36  96 SE5       29.60R WCI  33
6HR MIN TEMP:  36; 6HR MAX TEMP:  37; 6HR PCP:  0.30;

PORT HURON     PTSUNNY   61  54  77 SW5       29.57R
TRI CITIES     CLOUDY    38  38 100 NE10      29.58F FOG     WCI  31
6HR MIN TEMP:  33; 6HR MAX TEMP:  38; 6HR PCP:  0.15;

MIDLAND        CLOUDY    38  37  93 NE9G16    29.58F WCI  32
6HR MIN TEMP:  33; 6HR MAX TEMP:  38; 6HR PCP:  0.06;

TROY           CLOUDY    61  53  74 NW3       29.58S
SAGINAW HB     CLOUDY    39  36  87 NE9       29.57F WCI  33
$$
MIZ043>046-050>051-056>058-064>065-071>073-077>080-241900-
SOUTHWEST LOWER MICHIGAN

CITY           SKY/WX    TMP DP  RH WIND       PRES   REMARKS
BATTLE CREEK   CLOUDY    50  49  96 NE6       29.48F FOG
6HR MIN TEMP:  40; 6HR MAX TEMP:  51; 6HR PCP:  0.03;

BENTON HARBOR  CLOUDY    56  53  90 E3        29.44F FOG
6HR MIN TEMP:  51; 6HR MAX TEMP:  59; 6HR PCP:  0.06;

BIG RAPIDS     CLOUDY    36  34  94 E13       29.53F FOG     WCI  27
6HR MIN TEMP:  34; 6HR MAX TEMP:  36; 6HR PCP:  0.23;

COLDWATER      CLOUDY    64  56  77 S8        29.48F
6HR MIN TEMP:  46; 6HR MAX TEMP:  67;

FREMONT        LGT SNOW  36  36 100 E12G18    29.51F WCI  27
6HR MIN TEMP:  33; 6HR MAX TEMP:  36;

HOLLAND        CLOUDY    40  38  93 E8        29.48F FOG     WCI  34
6HR MIN TEMP:  38; 6HR MAX TEMP:  40; 6HR PCP:  0.32;

GRAND RAPIDS   LGT RAIN  38  36  92 E14       29.50F FOG     WCI  30
6HR MIN TEMP:  35; 6HR MAX TEMP:  38; 6HR PCP:  0.13;

IONIA          DRIZZLE   37  36  99 NE9       29.52F WCI  30
6HR MIN TEMP:  33; 6HR MAX TEMP:  37; 6HR PCP:  0.04;

KALAMAZOO      CLOUDY    55  51  86 NE3       29.48F FOG
6HR MIN TEMP:  43; 6HR MAX TEMP:  57; 6HR PCP:  0.07;

LUDINGTON      CLOUDY    33  33 100 NE8       29.52F FOG     WCI  26
6HR MIN TEMP:  32; 6HR MAX TEMP:  33; 6HR PCP:  0.40;

MARSHALL       CLOUDY    61  57  87 CALM      29.48F
6HR MIN TEMP:  41; 6HR MAX TEMP:  61; 6HR PCP:  0.02;

MOUNT PLEASANT CLOUDY    37  37  98 NE10      29.56F FOG     WCI  30
6HR MIN TEMP:  32; 6HR MAX TEMP:  37; 6HR PCP:  0.13;

MUSKEGON       LGT RAIN  38  36  92 E13       29.49F FOG     WCI  30
6HR MIN TEMP:  35; 6HR MAX TEMP:  38; 6HR PCP:  0.16;

SOUTH HAVEN    CLOUDY    49  48  99 NE3       29.45F FOG
$$
MIZ016>042-241900-
NORTHERN LOWER MICHIGAN

CITY           SKY/WX    TMP DP  RH WIND       PRES   REMARKS
ALPENA         CLOUDY    34  34 100 NE15G25   29.68F WCI  24
6HR MIN TEMP:  32; 6HR MAX TEMP:  34; 6HR PCP:  0.76;

BEAVER ISLAND  CLOUDY    28  27  96 NE14G22   29.69F FOG     WCI  17
6HR MIN TEMP:  26; 6HR MAX TEMP:  28;

BELLAIRE       CLOUDY    34  33  94 NE6       29.62F WCI  29
6HR MIN TEMP:  28; 6HR MAX TEMP:  34;

CADILLAC       CLOUDY    33  32  96 E3        29.53F
CHARLEVOIX     CLOUDY    33  32  95 NE13      29.68F WCI  24
FRANKFORT      CLOUDY    32  31  95 NE6       29.57F WCI  26
GAYLORD        CLOUDY    34  31  88 E9        29.62F FOG     WCI  27
6HR MIN TEMP:  28; 6HR MAX TEMP:  34; 6HR PCP:  0.46;

GRAYLING       CLOUDY    34  33  94 E13       29.60F WCI  25
6HR MIN TEMP:  30; 6HR MAX TEMP:  34;

HARBOR SPRINGS CLOUDY    33  31  92 E20G29    29.64F FOG     WCI  21
HOUGHTON LAKE  CLOUDY    33  31  92 E13       29.57F WCI  24
6HR MIN TEMP:  30; 6HR MAX TEMP:  34; 6HR PCP:  0.70;

MANISTEE       CLOUDY    33  31  92 NE10      29.55F WCI  25
OSCODA         MIX PCPN  36  35  95 NE13      29.64R WCI  28
6HR MIN TEMP:  33; 6HR MAX TEMP:  36; 6HR PCP:  0.75;

PELLSTON       LGT SNOW  32  28  85 E15G22    29.68F FOG     WCI  22
6HR MIN TEMP:  28; 6HR MAX TEMP:  32; 6HR PCP:  0.19;

ROGERS CITY    CLOUDY    32  32  98 E12G18    29.68F FOG     WCI  23
TRAVERSE CITY  CLOUDY    33  33 100 NE9       29.59F FOG     WCI  25
6HR MIN TEMP:  30; 6HR MAX TEMP:  33; 6HR PCP:  0.29;

$$
MIZ007>008-015-241900-
EASTERN UPPER MICHIGAN

CITY           SKY/WX    TMP DP  RH WIND       PRES   REMARKS
KINROSS        SNOW      27  25  92 NE17      29.72F VSB 1/2 WCI  14
6HR MIN TEMP:  26; 6HR MAX TEMP:  27; 6HR PCP: TRACE;

MACKINAC ISLAN CLOUDY    30  30 100 NE17G26   29.68F WCI  18
6HR MIN TEMP:  26; 6HR MAX TEMP:  30; 6HR PCP:  0.08;

NEWBERRY       LGT SNOW  25  23  92 NE12G22   29.71F VSB 1   WCI  15
6HR MIN TEMP:  23; 6HR MAX TEMP:  27;

S. S. MARIE    FLURRIES  29  22  75 NE9       29.76R WCI  20
6HR MIN TEMP:  28; 6HR MAX TEMP:  29; 6HR PCP:  0.02;

MUNISING         N/A     25  22  88 N17       29.79S WCI  12
6HR MIN TEMP:  25; 6HR MAX TEMP:  29; 6HR PCP:  0.03;

$$
MIZ004>006-011>014-085-241900-
CENTRAL UPPER MICHIGAN

CITY           SKY/WX    TMP DP  RH WIND       PRES   REMARKS
MANISTIQUE     LGT SNOW  26  25  98 N12G17    29.73R WCI  15
6HR MIN TEMP:  26; 6HR MAX TEMP:  28;

ESCANABA       LGT SNOW  27  24  89 N13G18    29.72F FOG     WCI  16
6HR MIN TEMP:  26; 6HR MAX TEMP:  28; 6HR PCP:  0.01;

MENOMINEE      LGT SNOW  28  25  86 NE14G22   29.67F VSB 1   WCI  17
SAWYER-GWINN   LGT SNOW  23  19  86 NE22      29.77R VSB 3/4 WCI   8
$$
MIZ001>003-009>011-084-241900-
WESTERN UPPER MICHIGAN

CITY           SKY/WX    TMP DP  RH WIND       PRES   REMARKS
IRON MOUNTAIN  SNOW      24  18  77 N20       29.72F VSB 1/2 WCI  10
6HR MIN TEMP:  23; 6HR MAX TEMP:  27; 6HR PCP:  0.06;

HOUGHTON       LGT SNOW  19  11  70 NE15G22   29.85F WCI   5
6HR MIN TEMP:  19; 6HR MAX TEMP:  20; 6HR PCP: TRACE;

COPPER HARBOR    N/A     21  16  81 E20       29.89F WCI   6
6HR MIN TEMP:  20; 6HR MAX TEMP:  23;

IRONWOOD       LGT SNOW  23  18  81 N10G16    29.84F VSB 1   WCI  12
6HR MIN TEMP:  21; 6HR MAX TEMP:  23; 6HR PCP: TRACE;

$$

ABBREVIATIONS USED IN REMARKS
   TC - TEMPERATURE IN CELSIUS
  WCI - WIND CHILL INDEX
   HX - HEAT INDEX
  VSB - VISIBILITY





USA.gov is the U.S. government's official web portal to all federal, state and local government web resources and services.